EGF1776 KSMX-KSAN

Flight info

Callsign EGF1776
Flight time N/A
Altitude 19000
Route GVO SXC COMIX2
Aircraft AT76/M-SDE2E3FGHIRWXY/LB1

Departure

Time 2026-04-25 19:58
Airport Santa Maria Public Airport Captain G Allan Hancock Field (KSMX)

Arrival

Time N/A
Airport San Diego International Airport (KSAN)
Time Latitude Longitude Altitude Speed Heading
2026-04-25 19:42 34.90007 -120.45069 267 ft 0 kts 46°
2026-04-25 19:54 34.90009 -120.45067 267 ft 1 kts 37°
2026-04-25 19:54 34.90018 -120.45066 267 ft 3 kts 341°
2026-04-25 19:54 34.90011 -120.45093 267 ft 7 kts 185°
2026-04-25 19:54 34.89992 -120.45098 267 ft 9 kts 212°
2026-04-25 19:55 34.90049 -120.45209 267 ft 13 kts 319°
2026-04-25 19:55 34.90113 -120.45293 267 ft 10 kts 285°
2026-04-25 19:55 34.90127 -120.45379 267 ft 13 kts 318°
2026-04-25 19:55 34.90200 -120.45463 267 ft 15 kts 317°
2026-04-25 19:56 34.90284 -120.45556 267 ft 17 kts 317°
2026-04-25 19:56 34.90373 -120.45658 267 ft 18 kts 317°
2026-04-25 19:56 34.90469 -120.45764 267 ft 19 kts 318°
2026-04-25 19:56 34.90563 -120.45864 267 ft 13 kts 319°
2026-04-25 19:57 34.90557 -120.45920 267 ft 10 kts 227°
2026-04-25 19:57 34.90496 -120.45994 267 ft 15 kts 224°
2026-04-25 19:57 34.90450 -120.45993 267 ft 9 kts 119°
2026-04-25 19:57 34.90326 -120.45827 268 ft 63 kts 136°
2026-04-25 19:58 34.89842 -120.45258 269 ft 126 kts 135°
2026-04-25 19:58 34.89192 -120.44505 681 ft 140 kts 136°
2026-04-25 19:58 34.88339 -120.43665 889 ft 173 kts 143°
2026-04-25 19:58 34.87327 -120.42757 1397 ft 180 kts 145°
2026-04-25 19:59 34.86679 -120.42166 1847 ft 174 kts 145°
2026-04-25 19:59 34.85402 -120.40968 2497 ft 175 kts 144°
2026-04-25 20:00 34.80828 -120.36407 4738 ft 183 kts 142°
2026-04-25 20:00 34.79854 -120.35401 5223 ft 185 kts 142°
2026-04-25 20:01 34.77892 -120.33393 6216 ft 185 kts 143°
2026-04-25 20:01 34.76894 -120.32383 6683 ft 187 kts 143°
2026-04-25 20:01 34.75887 -120.31361 7144 ft 188 kts 143°
2026-04-25 20:02 34.74887 -120.30343 7591 ft 189 kts 143°
2026-04-25 20:02 34.73875 -120.29308 8042 ft 189 kts 143°
2026-04-25 20:02 34.72832 -120.28307 8450 ft 192 kts 146°
2026-04-25 20:02 34.71767 -120.27337 8863 ft 193 kts 146°
2026-04-25 20:03 34.70689 -120.26357 9286 ft 194 kts 146°
2026-04-25 20:03 34.69618 -120.25337 9715 ft 195 kts 144°
2026-04-25 20:03 34.68562 -120.24314 10124 ft 195 kts 144°
2026-04-25 20:03 34.67503 -120.23276 10512 ft 198 kts 146°
2026-04-25 20:04 34.66427 -120.22216 10888 ft 200 kts 146°
2026-04-25 20:04 34.65342 -120.21151 11281 ft 200 kts 147°
2026-04-25 20:04 34.64251 -120.20081 11659 ft 201 kts 147°
2026-04-25 20:04 34.63159 -120.19007 12042 ft 202 kts 148°
2026-04-25 20:05 34.62788 -120.18642 12170 ft 202 kts 148°